Location: Buhlbach
(48.5256°N, 8.2649°E)
Time: 13:16:49
(UTC+00:00)

Daily predictions for brighter satellites

Satellite Brightness Start Highest point End
(mag) Time Altitude Azimuth Time Altitude Azimuth Time Altitude Azimuth
Cosmos 372 Rocket 4.0 18:17:38 10° NNW 18:22:50 82° ENE 18:28:02 10° SSE
ADEOS 3.6 18:18:59 10° SSE 18:24:11 75° ENE 18:29:25 10° NNW
Cosmos 841 Rocket 3.6 18:19:38 10° S 18:24:39 52° ESE 18:29:40 10° NNE
Intercosmos 24 3.9 18:22:55 10° NNW 18:26:29 76° W 18:30:22 10° S
PAYLOAD B 4.5 18:22:14 10° SE 18:27:38 53° ENE 18:33:05 10° N
Cosmos 1328 Rocket 4.5 18:25:29 10° N 18:29:14 28° ENE 18:32:57 10° SE
Meteor 1-4 Rocket 4.0 18:28:51 10° NE 18:30:00 12° ENE 18:31:08 10° E
Aureole 1 Rocket 3.6 18:26:11 10° NNW 18:30:43 57° WSW 18:34:17 10° S
USA 308 2.2 18:30:26 10° N 18:30:55 12° NNE 18:31:30 10° ENE
Cosmos 1674 3.5 18:29:04 10° NNE 18:31:53 24° ENE 18:34:40 10° SE
Cosmos 1743 3.0 18:29:47 10° SSE 18:33:06 37° E 18:36:26 10° NNE
CZ-4B DEB 4.2 18:27:45 10° SSE 18:33:15 73° ENE 18:38:45 10° NNW
SeaSat 1 4.4 18:31:49 10° NNE 18:36:11 33° NW 18:40:31 10° WSW
Tsikada Rocket 4.0 18:30:02 10° N 18:36:19 77° E 18:42:37 10° SSE
Cosmos 540 Rocket 4.3 18:31:23 10° SW 18:36:23 57° WNW 18:41:26 10° NNE
Cosmos 2278 Rocket 3.4 18:31:35 10° NNW 18:36:24 28° NE 18:41:07 10° ESE
NOSS 2-1 (C) 4.3 18:34:13 10° NNW 18:37:28 32° NE 18:41:26 11° ESE
Meteor 1-18 Rocket 4.4 18:33:03 10° N 18:38:59 67° ENE 18:44:50 10° SSE
Genesis I 3.0 18:37:19 10° SW 18:40:45 79° NW 18:44:16 10° NE
CZ-4B R/B 2.7 18:37:12 10° SSE 18:40:54 65° ENE 18:44:51 10° N
CZ-4B R/B 3.5 18:35:39 10° SE 18:40:57 50° ENE 18:46:10 10° N
Iridium 4 Rocket 3.1 18:37:02 10° N 18:41:13 54° E 18:45:16 10° SSE
Cosmos 2016 Rocket 4.1 18:37:47 10° SSW 18:43:53 81° W 18:50:02 10° N
Resurs 1-3 4.0 18:40:43 10° S 18:45:00 68° WSW 18:49:21 10° NNW
USA 290 4.2 18:43:16 10° NNE 18:45:23 16° NE 18:47:00 12° E
TSX-5 4.0 18:43:27 10° NNW 18:46:23 35° NE 18:48:41 14° ESE
CARTOSAT-1 3.7 18:42:35 10° SSE 18:46:42 52° ENE 18:50:51 10° N
SPOT 5 4.2 18:45:10 12° ESE 18:48:17 21° ENE 18:51:42 10° NNE
SPOT 1/Viking Rocket 3.8 18:43:23 10° S 18:48:33 76° WSW 18:53:45 10° NNW
NOSS 8 (A) 4.4 18:47:05 10° SW 18:51:11 77° SE 18:54:22 10° NE
ATLAS 2AS CENTAUR R/B 4.0 18:46:11 10° WSW 18:53:05 44° NW 18:59:45 10° NE
USA 306 3.9 18:51:58 10° SSE 18:53:59 16° SE 18:54:09 16° SE
Cosmos 1898 Rocket 4.5 18:50:48 10° NNW 18:55:56 49° WSW 19:00:59 10° S
ATLAS CENTAUR R/B 3.7 18:51:16 10° WNW 18:56:02 45° SW 19:03:16 10° SSE
ARGOS Delta rocket 4.0 18:51:58 10° SSE 18:57:10 88° ENE 19:02:07 10° N
USA 215 4.4 18:53:06 10° E 18:57:24 18° ESE 19:01:42 10° SSE
Cosmos 1151 Rocket 3.5 18:53:12 10° NNW 18:57:27 62° W 19:01:37 10° S
Cosmos 2360 Rocket 2.9 18:52:30 10° SW 18:58:05 60° WNW 19:03:41 10° NNE
Okean O Rocket 2.1 18:54:28 11° SE 18:58:22 41° ENE 19:02:32 10° N
Cosmos 1340 2.3 18:57:02 10° SSW 19:00:18 84° WNW 19:03:35 10° N
USA 186 1.7 18:58:44 10° SSE 19:01:56 81° ENE 19:05:10 10° N
Resurs 01 Rocket 1.6 18:58:27 10° SSE 19:02:52 77° ENE 19:07:19 10° N
Cosmos 2237 Rocket 3.4 19:04:46 15° SE 19:06:57 19° E 19:10:47 10° ENE
Cosmos 2322 Rocket 3.5 19:01:40 10° SW 19:07:06 44° NW 19:12:34 10° NNE
Helios 1A 3.3 19:05:05 10° N 19:09:08 66° WNW 19:13:09 10° SSW
Cosmos 1814 Rocket 4.3 19:06:00 10° S 19:11:00 44° ESE 19:16:00 10° NE
ACS3 Solar Sail 2.1 19:05:09 10° SE 19:11:18 54° ENE 19:17:31 10° N
BlueWalker 3 1.9 19:09:40 10° WNW 19:13:26 70° NNE 19:15:32 24° ESE
NOSS 2-1 (E) 3.6 19:09:56 10° NW 19:13:35 58° NE 19:16:32 22° ESE
Cosmos 44 Rocket 3.3 19:09:06 10° NW 19:13:52 74° SW 19:17:37 16° SSE
Okean-O 3.3 19:12:12 21° ESE 19:14:34 36° ENE 19:18:35 10° N
Cosmos 2333 Rocket 3.3 19:09:28 10° SW 19:15:03 50° NW 19:20:41 10° NNE
Cosmos 1515 Rocket 4.1 19:11:18 10° N 19:15:21 38° ENE 19:17:32 23° SE
Feng Yun 1-1 Rocket 4.3 19:10:45 10° SSE 19:16:29 88° ENE 19:22:24 10° NNW
SL-08 R/B 4.4 19:11:44 10° N 19:16:29 51° WNW 19:21:14 10° SW
ATLAS 3B R/B 4.4 19:11:23 10° NW 19:18:21 36° WSW 19:25:09 10° S
Cosmos 2219 Rocket 2.4 19:13:14 10° SSW 19:18:55 74° WNW 19:24:38 10° NNE
CSL-04 Rocket 3.7 19:17:42 10° SSE 19:23:06 86° WSW 19:28:28 10° NNW
NOSS 2-1 (D) 3.4 19:19:56 10° NW 19:23:37 73° NE 19:26:15 25° SE
BREEZE-M DEB (TANK) 1.6 19:22:27 10° WSW 19:24:30 76° SSE 19:25:16 38° E
Cosmos 1842 2.9 19:22:11 10° N 19:25:49 73° E 19:27:54 23° SSE
Cosmos 1766 Rocket 3.5 19:27:48 10° S 19:32:08 84° W 19:36:33 10° N
USA 267 3.8 19:29:00 16° E 19:34:03 51° NNE 19:40:22 10° WNW
DELTA 2 DEB (DPAF) 4.4 19:31:13 10° NNE 19:35:08 38° E 19:36:00 33° SE
Cosmos 1980 4.3 19:30:18 10° SSE 19:35:19 33° ESE 19:40:21 10° NE
Cosmos 2369 Rocket 4.2 19:33:36 10° N 19:36:58 16° NE 19:39:53 11° ENE
BREEZE-M R/B 4.0 19:33:19 10° W 19:37:49 89° S 19:49:01 18° ESE
Meteor 2-17 Rocket 4.4 19:32:58 10° N 19:39:03 88° ENE 19:44:32 13° S
Cosmos 2322 3.7 19:34:02 10° SSW 19:39:42 89° NW 19:45:23 10° NNE
Meteor 1-13 Rocket 4.4 19:34:01 10° N 19:39:52 58° ENE 19:43:01 27° SE
USA 276 1.9 19:38:37 10° WNW 19:41:25 62° N 19:41:31 61° NNE
Cosmos 1400 Rocket 3.9 19:39:05 10° NNW 19:42:43 40° W 19:46:17 10° SSW
Spot 2 Rocket 4.4 19:41:51 27° E 19:43:06 30° ENE 19:47:28 10° N
MOS 1 4.2 19:42:10 24° SSE 19:45:46 75° ENE 19:51:28 10° NNW
PSLV R/B 3.5 19:44:57 39° SSE 19:46:13 90° NE 19:49:49 10° NNW
Cosmos 1707 2.6 19:43:48 10° NNW 19:47:21 74° W 19:48:45 34° S
Cosmos 1315 Rocket 3.2 19:44:14 10° N 19:48:01 41° ENE 19:48:16 41° E
CZ-4 R/B 3.6 19:45:09 10° SW 19:48:09 22° W 19:51:11 10° NW
Meteor 2-10 4.2 19:44:16 18° SSE 19:48:20 57° E 19:53:54 10° NNE
Cosmos 1733 2.9 19:49:19 58° E 19:49:19 58° E 19:52:39 10° NNE
Cosmos 1891 Rocket 4.5 19:43:15 10° S 19:49:18 82° W 19:55:31 10° N
Cosmos 1726 4.3 19:47:22 10° WSW 19:49:33 20° WNW 19:51:44 10° NNW
In-Cosmos 22 4.2 19:44:19 10° N 19:50:06 73° ENE 19:53:04 29° SSE
Cosmos 1570 Rocket 4.4 19:49:52 36° SE 19:50:47 38° ESE 19:55:38 10° NE
Cosmos 1408 Rocket 3.7 19:50:27 44° SE 19:51:10 48° E 19:55:25 10° NNE
Cosmos 1536 2.5 19:55:08 34° S 19:56:42 89° ESE 20:00:33 10° N
Lacrosse 4 Rocket 2.8 19:54:09 10° NW 19:58:06 34° WSW 20:00:26 20° SSW
COSMOS 2428 2.8 19:53:04 10° SSW 19:58:47 79° WNW 20:04:33 10° NNE
Cosmos 1818 4.0 19:53:49 10° SW 19:59:14 63° NW 20:04:43 10° NE
Meteor 1-23 Rocket 4.4 19:56:20 10° N 20:01:50 53° ENE 20:03:21 41° ESE
Nadezhda 4 Rocket 3.9 19:55:34 10° N 20:01:51 86° E 20:05:35 26° S
Meteor 1-4 Rocket 3.6 19:59:34 10° NW 20:01:55 27° W 20:02:22 26° WSW
Cosmos 1356 Rocket 3.8 19:57:49 10° NNW 20:01:57 60° W 20:03:51 30° SSW
Cosmos 1092 Rocket 4.3 19:57:48 10° N 20:03:57 50° ENE 20:05:51 39° ESE
Cosmos 1943 Rocket 2.1 19:59:16 10° NNW 20:04:47 70° ENE 20:06:28 45° SE
Terra 1.9 20:09:10 52° ESE 20:09:48 57° ENE 20:14:25 10° N
SL-14 R/B 4.1 20:06:13 10° N 20:09:04 37° NE 20:09:04 37° NE
USA 59 Rocket 0.7 20:06:43 10° NW 20:10:32 51° SW 20:11:54 38° S
Cosmos 2026 Rocket 4.1 20:04:34 10° N 20:10:46 57° ENE 20:12:32 43° SE
Cosmos 1464 Rocket 4.1 20:05:28 10° SSW 20:11:45 80° W 20:18:10 10° N
Cosmos 158 Rocket 4.2 20:13:21 44° ENE 20:13:21 44° ENE 20:17:16 10° NNE
Meteor 1-11 Rocket 3.6 20:09:42 20° S 20:13:47 84° E 20:19:23 10° NNE
Cosmos 1805 Rocket 3.9 20:14:27 48° ENE 20:14:27 48° ENE 20:18:01 10° NNE
Ariane Rocket 3.3 20:14:46 45° E 20:15:16 47° ENE 20:20:07 10° N
CRYOSAT 2 4.2 20:10:24 10° N 20:15:19 70° E 20:16:10 57° SSE
Cosmos 1125 Rocket 3.4 20:12:18 10° NNW 20:17:31 90° ENE 20:18:45 54° SSE
SPOT 3 Rocket 3.8 20:17:15 46° E 20:17:46 48° ENE 20:22:42 10° N
Cosmos 1634 Rocket 4.3 20:17:05 43° ESE 20:17:50 45° E 20:23:47 10° NNE
Cosmos 839 Rocket 4.5 20:11:06 10° SSW 20:19:50 66° ESE 20:26:48 10° NE
USA 290 3.5 20:16:53 10° NW 20:19:43 38° W 20:19:43 38° W
ERS-1 Rocket 2.8 20:19:35 57° SSE 20:20:39 83° ENE 20:25:42 10° NNW
Cosmos 2278 Rocket 2.4 20:15:19 10° NNW 20:20:56 64° WSW 20:22:57 39° S
Meteor 2-9 Rocket 3.9 20:20:43 36° S 20:22:57 86° E 20:28:23 10° NNE
BREEZE-M DEB (TANK) 4.2 20:19:58 10° WNW 20:23:25 84° N 20:26:06 38° E
SPOT 5 3.3 20:24:19 36° SSW 20:25:59 55° W 20:30:30 10° NNW
IRS-1A Rocket 4.3 20:25:48 42° S 20:27:52 80° WSW 20:33:40 10° NNW
Cosmos 2034 Rocket 3.9 20:26:34 24° SSW 20:30:32 84° W 20:36:46 10° N
Celestis-02/Orion 38 4.4 20:29:04 10° NNE 20:34:00 68° E 20:34:00 68° E
Okean O Rocket 3.7 20:31:49 13° SW 20:34:46 24° W 20:38:22 10° NW
Cosmos 2208 Rocket 4.0 20:35:48 65° E 20:35:48 65° E 20:40:45 10° NNE
Cosmos 1627 Rocket 4.4 20:29:16 10° N 20:35:38 83° E 20:37:10 54° SSE
NOSS 0 Rocket 4.2 20:33:11 10° SW 20:39:24 70° WNW 20:45:40 10° NNE
Resurs 01 Rocket 4.4 20:37:48 10° WSW 20:39:51 13° W 20:41:54 10° WNW
USA 215 3.1 20:34:49 10° ENE 20:41:19 62° SE 20:47:47 10° SW
Cosmos 1656 Rocket 4.2 20:40:40 10° NNW 20:46:06 44° NE 20:46:20 44° ENE
MOS 1 Rocket 4.2 20:45:59 40° SW 20:47:10 49° W 20:52:11 10° NNW
Meteor 1-21 4.1 20:41:27 10° N 20:47:13 81° ENE 20:47:41 74° SE
Cosmos 2228 Rocket 3.8 20:43:01 10° N 20:46:31 47° NNE 20:46:31 47° NNE
Meteor 2-12 Rocket 4.3 20:42:28 10° N 20:48:40 84° E 20:49:33 67° SSE
Cosmos 2237 Rocket 2.2 20:46:17 19° SW 20:50:20 76° WNW 20:56:00 10° NNE
Okean-O 4.3 20:49:39 23° SW 20:50:59 27° W 20:54:46 10° NW
BlueWalker 3 4.0 20:48:00 10° WNW 20:49:46 21° W 20:49:46 21° W
Cosmos 2297 4.2 20:48:21 10° NNW 20:53:46 45° NE 20:53:48 45° NE
Aureole 3 Rocket 4.3 20:47:44 16° SSW 20:53:54 67° W 20:59:24 10° N
ACS3 Solar Sail 3.4 20:50:27 12° SSW 20:55:39 31° W 21:01:15 10° NNW
Sich 1 3.7 20:57:04 50° WNW 20:57:04 50° WNW 21:01:03 10° N
Cosmos 2279 Rocket 4.0 21:06:51 67° ENE 21:06:51 67° ENE 21:12:42 10° NNE
BREEZE-M DEB (TANK) 3.3 20:56:08 10° W 21:10:23 87° N 21:10:46 79° E
USA 267 3.1 21:16:21 77° SSE 21:16:50 84° SW 21:23:26 10° NW
Spot 2 Rocket 4.4 21:21:59 41° W 21:21:59 41° W 21:26:39 10° NNW
Cosmos 2369 Rocket 2.6 21:16:36 10° NNW 21:21:39 55° NNE 21:21:39 55° NNE
NOSS 3-3 (A) 4.3 21:25:46 53° NE 21:25:46 53° NE 21:30:41 10° NE
SL-16 R/B 3.1 21:49:08 41° NNE 21:49:08 41° NNE 21:52:45 10° NNE
Terra 3.9 21:47:52 19° W 21:47:52 19° W 21:51:07 10° NW
Cosmos 1943 Rocket 4.0 21:44:00 10° NW 21:47:56 20° W 21:47:58 20° W
NOSS 3-4 (A) 3.7 21:41:14 10° NW 21:47:59 82° NE 21:47:59 82° NE
NOSS 3-4 (C) 3.7 21:41:20 10° NW 21:48:05 82° NE 21:48:05 82° NE
Cosmos 2266 Rocket 4.2 21:50:09 10° N 21:55:29 67° NNW 21:55:29 67° NNW
Cosmos 1655 Rocket 4.4 22:10:49 10° N 22:15:58 61° NNW 22:15:58 61° NNW
USA 215 3.6 22:17:56 10° NE 22:24:20 60° NNW 22:30:45 10° W
ATLAS 2AS CENTAUR R/B 4.4 22:33:11 10° NW 22:39:01 27° NNE 22:43:40 14° ENE
Cosmos 2369 Rocket 4.2 23:01:15 10° NW 23:03:25 19° WNW 23:03:25 19° WNW
Cosmos 1980 Rocket 4.5 23:26:00 10° N 23:29:49 18° NE 23:31:54 15° ENE
SL-16 R/B 4.2 23:30:58 20° NW 23:32:00 21° NW 23:36:12 10° N
